Regional Weather Roundup
Issued by NWS Wakefield, VA

Home | Current Version | Previous Version | Graphics & Text | Print | Product List | Glossary On
Versions: 1 2 3 4 5 6 7 8 9 10 11 12 13 14 15 16 17 18 19 20 21 22 23 24 25 26 27 28 29 30 31 32 33 34 35 36 37 38 39 40 41 42 43 44 45 46 47 48 49 50
570
ASUS41 KAKQ 222315
RWRAKQ

REGIONAL WEATHER ROUNDUP
NATIONAL WEATHER SERVICE WAKEFIELD VA
700 PM EDT SAT APR 22 2017

Note: "fair" indicates few or no clouds below 12,000 feet with no
significant weather and/or obstructions to visibility. * = Denotes
station may not report precipitation (e.g., rain,snow,etc.),
thunder or fog.

VAZ042-051-052>054-056-230000-
NORTHERN VIRGINIA

CITY           SKY/WX    TMP DP  RH WIND       PRES   REMARKS
WASH NATIONAL  LGT RAIN  54  50  86 N14       30.00R
DULLES         CLOUDY    51  47  86 NE8       29.98F
FORT BELVOIR   LGT RAIN  53  50  89 N3        29.99R
QUANTICO       LGT RAIN  53  53 100 N9        30.00S
FREDERICKSBRG* LGT RAIN  51  51 100 N5        29.98S
STAFFORD*      LGT RAIN  50  50 100 N7        30.02F
WARRENTON      LGT RAIN  51  47  86 NE3       29.99S
CULPEPER*      LGT RAIN  51  49  95 NE3       30.00S
MANASSAS*      LGT RAIN  51  48  89 NE6       30.00S
LEESBURG*      CLOUDY    52  52 100 N5        30.00S
WINCHESTER     DRIZZLE   48  46  93 CALM      30.00R
FRONT ROYAL*   CLOUDY    50  48  93 CALM      30.00R
LURAY*         CLOUDY    50  48  93 NE3       30.00R
$$

VAZ048-049-060>072-079>083-230000-
CENTRAL AND SOUTH CENTRAL VIRGINIA

CITY           SKY/WX    TMP DP  RH WIND       PRES   REMARKS
RICHMOND       LGT RAIN  54  53  97 N14       29.93S
CHESTERFIELD*  CLOUDY    55  37  50 N9        29.96R
PETERSBURG*    LGT RAIN  55  53  92 N8G18     29.95R
HANOVER        LGT RAIN  53  52  96 N10G17    29.95F
TAPPAHANNOCK*  LGT RAIN  55  55 100 N7        29.97R
QUINTON*       CLOUDY    56  56 100 N9        29.91F
CHARLOTTSVILLE LGT RAIN  53  50  89 NE7       29.97S
GORDONSVILLE*  CLOUDY    50  48  95 NE6       29.98R
ORANGE*        CLOUDY    50  46  87 NE9       29.97F
LOUISA*        RAIN      54  52  94 NE10      29.96R
BUMPASS*       CLOUDY    50  50 100 N5        29.97F
FARMVILLE*     CLOUDY    53  53 100 NE10      29.94S
CREWE*         CLOUDY    53  53 100 N6        29.93S
FORT PICKETT*  CLOUDY   N/A N/A N/A N9        29.94R
CHASE CITY*    CLOUDY    53  52  94 N8G20     29.92R
CLARKSVILLE*   CLOUDY    55  55 100 NE12G22   29.91R
SOUTH HILL*    CLOUDY    55  55 100 N10G16    29.96S
LAWRENCEVILLE* CLOUDY    56  55  97 NE6       29.91R
EMPORIA*       LGT RAIN  59  57  94 NW8       29.92S
$$

VAZ088>098-230000-
SOUTHEAST VIRGINIA

CITY           SKY/WX    TMP DP  RH WIND       PRES   REMARKS
NORFOLK        CLOUDY    57  54  89 NE21G30   29.89R
VIRGINIA BEACH CLOUDY    54  51  90 N17       29.89R THUNDER
NORFOLK NAVAL  TSTM      58  55  90 NE15G26   29.93R FOG
WEST POINT*    CLOUDY    57  55  94 N5        29.94R
SALUDA*        CLOUDY    57  56  97 N12G18    29.93F
NEWPORT NEWS   LGT RAIN  58  56  93 NE9G20    29.92R FOG
LANGLEY AFB    TSTM      57  55  94 NE25      29.90R VSB 1
FORT EUSTIS    LGT RAIN  58  56  92 NE6       29.90R
WILLIAMSBURG*  CLOUDY    61  61 100 CALM      29.92R
HR EXEC AP*    CLOUDY    57  52  82 NW7G18    29.91R
FRANKLIN*      RAIN      59  58  96 N8G17     29.89R
US460-WAKEFLD  TSTM      58  58 100 VRB7      29.92R FOG
$$

VAZ020-022-025-037-045-230000-
WEST CENTRAL AND SOUTHWEST VIRGINIA

CITY           SKY/WX    TMP DP  RH WIND       PRES   REMARKS
STAUNTON*      CLOUDY    49  47  93 NE7       30.00R
WAYNESBORO*    CLOUDY    49  49  98 N8        29.98R
HOT SPRINGS VA LGT RAIN  46  45  93 NE8       29.97R VSB<1/4
LYNCHBURG      LGT RAIN  53  51  93 NE12      29.95R
DANVILLE       CLOUDY    56  56 100 NE14G21   29.90S
SOUTH BOSTON*  CLOUDY    55  54  95 N10       29.92R
MARTINSVILLE   CLOUDY    60  57  91 NE7       29.92R
ROANOKE        CLOUDY    57  54  89 NE9       29.95R
BLACKSBURG     CLOUDY    59  55  87 CALM      29.96R
DUBLIN*        CLOUDY    59  50  72 N7        29.94R
MARION*        CLOUDY    62  55  78 W6        29.95R
HILLSVILLE*    CLOUDY    58  56  91 CALM      29.91R
RICHLANDS*     LGT RAIN  51  30  44 N8        29.96R VSB 1/4
WISE*          DRZL/FOG  46  46 100 N8        29.96S VSB 1/2
ABINGDON*      CLOUDY    63  58  84 N8        29.92R
$$

MDZ021>025-VAZ099-100-230000-
SOUTHERN MARYLAND AND THE DELMARVA PENINSULA

CITY           SKY/WX    TMP DP  RH WIND       PRES   REMARKS
PATUXENT RIVER LGT RAIN  55  55 100 N15       29.95F
BAY BRIDGE APT CLOUDY    54  50  87 N5        29.98F FOG
LEONARDTOWN    CLOUDY    54  52  94 N5        29.97F
DOVER          LGT RAIN  54  54 100 NW9       29.97R
GEORGETOWN     CLOUDY    54  52  93 MISG      29.97R
EASTON         DRIZZLE   54  50  87 N8        30.02R
CAMBRIDGE      CLOUDY    54  52  94 N13       29.98R
SALISBURY      HVY RAIN  53  53 100 N7        29.97R FOG
OCEAN CITY     CLOUDY    53  48  83 NE12      29.95R
WALLOPS ISLAND LGT RAIN  54  52  93 N9        29.94R
ACCOMACK*      LGT RAIN  55  52  92 NE10G16   29.93R
$$

NCZ012>017-030>032-230000-
NORTH CENTRAL AND EASTERN NORTH CAROLINA

CITY           SKY/WX    TMP DP  RH WIND       PRES   REMARKS
ROANOKE RAPIDS CLOUDY    61  61 100 N12       29.89R
RALEIGH        CLOUDY    66  60  81 NE10G21   29.86R
ELIZABETH CITY HVY RAIN  59  59 100 NE17G26   29.84R FOG
AHOSKIE*       RAIN      62  61  97 N9G17     29.88R
EDENTON*       CLOUDY    69  62  80 NE13G25   29.79R
CURRITUCK*     CLOUDY    58  58 100 NE16G25   29.84F FOG
KILL DEVIL HLS CLOUDY    63  58  86 N10G20    29.80R FOG
MANTEO         CLOUDY    76  68  75 SW17      29.80R
CAPE HATTERAS  CLEAR     73  66  78 SW15      29.84F HAZE
TARBORO*       NOT AVBL
GOLDSBORO      PTCLDY    85  55  36 SW14      29.78S
WASHINGTON     PTCLDY    82  59  44 S6        29.78S
GREENVILLE     CLOUDY    82  59  44 W7G17     29.82R
NEW BERN       CLEAR     80  63  55 S13       29.82R
WILMINGTON     CLEAR     78  66  66 S12       29.84S
$$

VAZ048-230000-
ELSEWHERE

CITY           SKY/WX    TMP DP  RH WIND       PRES   REMARKS
HARRISBURG PA  CLOUDY    55  43  63 CALM      29.97F
BALTIMORE      CLOUDY    52  51  97 N3        29.97F
ANNAPOLIS      CLOUDY    55  52  89 N6        29.98S
ANDREWS AFB    DRIZZLE   52  50  93 N8        29.98R
PHILADELPHIA   LGT RAIN  54  50  86 N5        29.99R
HENDERSON NC   CLOUDY    58  56  93 N8        29.89R
GREENSBORO     CLOUDY    65  60  84 NE14      29.86R
ROCKY MOUNT    CLOUDY    71  65  81 N18G29    29.85R
$$

VAZ100-230000-
MARINE

STATION/POSITION TIME  TEMP    WIND        PRES    WAVE   SWELL
                       AIR SEA DIR/SP/G            HT/PER HT/PER
                 (UTC) (F)     (DEG/KT/KT) (MB)    (FT/S) (FT/S)
CAPE MAY NJ      2248   54 57  350/ 10/ 17 1014.3R
LEWES DE         2248           30/  1/  6   N/A
15NM E FENWICK I 2250   51 52   20/ 14/ 16 1014.4R   5/12   3/12
OCEAN-CITY-INLET 2242   53 56   70/  4/  8 1014.7R
WACHAPREAGUE VA  2248   55 66   40/ 21/ 26 1012.5R
THOMAS POINT MD  2300   53 60  360/ 14/ 16   N/A
GOOSES REEF MD   2250   55      20/ 16/ 19 1015.4R
COVE POINT MD    2248   55      20/ 18/ 22 1015.4R
SOLOMONS ISLAND  2248   55 62   10/ 10/ 13   N/A
BISHOPS HEAD MD  2248   55 65  360/ 11/ 15 1014.9R
PINEY POINT MD   2242           30/ 10/ 12   N/A
POTOMAC MD       2250   56      10/ 14/ 19 1013.7R
CAMBRIDGE MD     2248   54 65  360/ 13/ 16 1014.4R
LEWISETTA VA     2248   56 66   20/ 10/ 15 1014.5R
RAPPAHANNOCK LGT 2242           20/ 23/ 25 1014.1R
STINGRAY PT      2250   57      60/ 19/ 23 1012.0F
YORK RVR RNG VA  2248   58      50/ 22/ 24 1012.5R
YORKTOWN VA      2248   59 65   40/ 13/ 18 1012.7R
JAMESTOWN VA     2250   59      30/  8/ 14   N/A
DOMINION TERM VA 2248   58      40/  5/  7 1013.0R
KIPTOPEKE VA     2242      62   60/ 15/ 21   N/A
CHES BAY BRIDGE  2248   56 61   50/ 24/ 27 1011.9R
CAPE HENRY VA    2248   54      30/ 24/ 29   N/A
WILLOUBY STN VA  2248   58      40/ 21/ 22 1013.4R
S CRANEY ISL VA  2248   58      40/ 21/ 25 1011.9R
CAPE HENRY BUOY  2242      58                N/A     5/ 5   2/12
1ST LANDING BUOY 2250   56                 1012.1R
CAPE CHARLES BUO 2251      59                N/A     5/ 5   2/13
64NM E OF VA BCH 2250   56 59   30/ 17/ 21 1010.8F   5/13   3/13
DUCK PIER NC     2248   57 57   10/ 20/ 26 1009.1R
44100 DUCK FRF   2205      61                N/A     4/12   2/12
44056 DUCK FRF   2230      59                N/A     4/11   2/11
OREGON INLET NC  2242   72 76  190/ 22/ 28 1009.0F
HATTERAS NC      2248   72 71  210/ 14/ 19 1010.0F
DIAMOND SHLS NC  2250   77 75  210/ 21/ 27 1010.2F   6/ 6   2/12
CAPE LOOKOUT NC  2300   72     200/ 12/ 15 1010.6F
$$




USA.gov is the U.S. government's official web portal to all federal, state and local government web resources and services.